Погода в Криничках

Украина / Днепропетровская область     48°22′24″N   34°27′23″E
темп.,
°C
ветер,
м/с
пор.,
м/с
влажн.,
%
обл.,
%
осадки,
мм/ч
давл.,
гПа
погр.,
м
13 августа, сб
сб1300:00+22всв410530 0.0 1013189
03:00+21в465986 0.0 1012100
06:00+20всв47710 0.3 1012125
09:00+25в5104746 0.8 1012420
12:00+33вюв68226 0.1 10111980
15:00+35вюв56205 0.1 10093103
18:00+35вюв671817 0.0 10083016
21:00+28всв592735 0.0 1009175
14 августа, вс
вс1400:00+26всв5133098 0.0 1008302
03:00+24всв51337100 0.0 1008300
06:00+26в71529100 0.0 1007474
09:00+29в81326100 0.0 1008962
12:00+34вюв81116100 0.0 10072456
15:00+33ююв51018100 0.0 10072049
18:00+31св6112198 0.0 1006403
21:00+29всв6152575 0.0 1006406
15 августа, пн
пн1500:00+28всв7162592 0.0 1005534
03:00+28всв816245 0.0 1005539
06:00+26всв7132716 0.0 1006383
09:00+28в61333100 0.6 1006615
12:00+33вюв81122100 0.0 10061837
15:00+36юв9111793 0.0 10053010
18:00+34ю6823100 0.0 10041497
21:00+27ю4639100 0.0 1006138
16 августа, вт
вт1600:00+23сз2266100 0.0 100721
03:00+24вюв4951100 0.0 1008184
06:00+22в4666100 0.6 1009105
09:00+26в51043100 0.9 1009632
12:00+28ююв5634100 0.0 10101304
15:00+30вюв4534100 0.4 10091524
18:00+29юз3240100 0.3 1009946
21:00+21з357678 0.7 1009106
17 августа, ср
ср1700:00+21зюз23740 0.6 100931
03:00+20юз34794 0.6 100964
06:00+19зюз22830 0.0 100929
09:00+25зюз34472 0.0 1009534
12:00+31зюз443376 0.0 10091688
15:00+32зюз443358 0.0 10082203
18:00+32з243176 0.0 10072488
21:00+28ююз124192 0.0 100817